Time,TemperatureF,DewpointF,PressureIn,WindDirection,WindDirectionDegrees,WindSpeedMPH,WindSpeedGustMPH,Humidity,HourlyPrecipIn,Conditions,Clouds,dailyrainin,SolarRadiationWatts/m^2,SoftwareType,DateUTC
2013-03-03 00:02:00,48.7,20.1,29.94,East,99,1.0,7.0,32,0.00,,,0.00,0.0,meteohub,2013-03-03 07:02:00,
2013-03-03 00:07:00,48.7,20.1,29.93,ESE,108,3.0,6.0,32,0.00,,,0.00,0.0,meteohub,2013-03-03 07:07:00,
2013-03-03 00:12:00,48.7,20.1,29.93,East,101,3.0,5.0,32,0.00,,,0.00,0.0,meteohub,2013-03-03 07:12:00,
2013-03-03 00:17:00,48.7,20.1,29.93,ESE,102,2.0,6.0,32,0.00,,,0.00,0.0,meteohub,2013-03-03 07:17:00,
2013-03-03 00:22:00,48.6,19.9,29.93,ESE,105,1.0,6.0,32,0.00,,,0.00,0.0,meteohub,2013-03-03 07:22:00,
2013-03-03 00:27:00,48.6,19.9,29.93,ESE,109,3.0,5.0,32,0.00,,,0.00,0.0,meteohub,2013-03-03 07:27:00,
2013-03-03 00:32:00,48.6,19.9,29.93,East,99,0.0,5.0,32,0.00,,,0.00,0.0,meteohub,2013-03-03 07:32:00,
2013-03-03 00:37:00,48.4,19.9,29.93,East,99,1.0,5.0,32,0.00,,,0.00,0.0,meteohub,2013-03-03 07:37:00,
2013-03-03 00:42:00,48.2,21.2,29.93,East,98,5.0,5.0,34,0.00,,,0.00,0.0,meteohub,2013-03-03 07:42:00,
2013-03-03 00:47:00,48.2,20.5,29.92,ESE,109,3.0,5.0,33,0.00,,,0.00,0.0,meteohub,2013-03-03 07:47:00,
2013-03-03 00:52:00,47.8,20.1,29.92,ESE,105,1.0,7.0,33,0.00,,,0.00,0.0,meteohub,2013-03-03 07:52:00,
2013-03-03 00:57:00,47.7,19.9,29.92,East,95,2.0,7.0,33,0.00,,,0.00,0.0,meteohub,2013-03-03 07:57:00,
2013-03-03 01:02:00,47.5,20.5,29.92,East,97,2.0,7.0,34,0.00,,,0.00,0.0,meteohub,2013-03-03 08:02:00,
2013-03-03 01:07:00,47.5,20.5,29.92,ESE,109,3.0,5.0,34,0.00,,,0.00,0.0,meteohub,2013-03-03 08:07:00,
2013-03-03 01:12:00,47.5,20.5,29.92,ESE,111,1.0,5.0,34,0.00,,,0.00,0.0,meteohub,2013-03-03 08:12:00,
2013-03-03 01:17:00,47.7,20.7,29.92,ESE,109,0.0,5.0,34,0.00,,,0.00,0.0,meteohub,2013-03-03 08:17:00,
2013-03-03 01:22:00,47.3,20.3,29.92,ESE,109,0.0,5.0,34,0.00,,,0.00,0.0,meteohub,2013-03-03 08:22:00,
2013-03-03 01:27:00,46.8,19.9,29.92,ESE,110,1.0,4.0,34,0.00,,,0.00,0.0,meteohub,2013-03-03 08:27:00,
2013-03-03 01:32:00,46.6,20.3,29.92,ESE,111,1.0,4.0,35,0.00,,,0.00,0.0,meteohub,2013-03-03 08:32:00,
2013-03-03 01:37:00,46.4,20.3,29.91,ESE,111,0.0,3.0,35,0.00,,,0.00,0.0,meteohub,2013-03-03 08:37:00,
2013-03-03 01:42:00,46.2,20.1,29.91,ESE,111,1.0,2.0,35,0.00,,,0.00,0.0,meteohub,2013-03-03 08:42:00,
2013-03-03 01:47:00,46.4,20.3,29.91,ESE,111,1.0,3.0,35,0.00,,,0.00,0.0,meteohub,2013-03-03 08:47:00,
2013-03-03 01:52:00,46.2,20.1,29.91,ESE,112,0.0,3.0,35,0.00,,,0.00,0.0,meteohub,2013-03-03 08:52:00,
2013-03-03 01:57:00,46.0,19.9,29.91,ESE,112,0.0,3.0,35,0.00,,,0.00,0.0,meteohub,2013-03-03 08:57:00,
2013-03-03 02:02:00,46.0,19.9,29.90,ESE,111,0.0,2.0,35,0.00,,,0.00,0.0,meteohub,2013-03-03 09:02:00,
2013-03-03 02:07:00,46.0,19.9,29.90,ESE,111,2.0,2.0,35,0.00,,,0.00,0.0,meteohub,2013-03-03 09:07:00,
2013-03-03 02:12:00,46.0,19.9,29.90,ESE,109,1.0,5.0,35,0.00,,,0.00,0.0,meteohub,2013-03-03 09:12:00,
2013-03-03 02:17:00,46.0,19.9,29.90,ESE,110,0.0,5.0,35,0.00,,,0.00,0.0,meteohub,2013-03-03 09:17:00,
2013-03-03 02:22:00,46.0,19.9,29.89,ESE,111,1.0,5.0,35,0.00,,,0.00,0.0,meteohub,2013-03-03 09:22:00,
2013-03-03 02:27:00,46.0,19.9,29.89,ESE,111,2.0,3.0,35,0.00,,,0.00,0.0,meteohub,2013-03-03 09:27:00,
2013-03-03 02:32:00,46.2,20.1,29.88,SE,136,3.0,5.0,35,0.00,,,0.00,0.0,meteohub,2013-03-03 09:32:00,
2013-03-03 02:37:00,46.0,19.9,29.88,SE,139,1.0,5.0,35,0.00,,,0.00,0.0,meteohub,2013-03-03 09:37:00,
2013-03-03 02:42:00,45.7,20.3,29.88,SE,141,2.0,5.0,36,0.00,,,0.00,0.0,meteohub,2013-03-03 09:42:00,
2013-03-03 02:47:00,45.3,19.9,29.88,SE,140,2.0,5.0,36,0.00,,,0.00,0.0,meteohub,2013-03-03 09:47:00,
2013-03-03 02:52:00,45.5,20.1,29.87,SE,145,3.0,5.0,36,0.00,,,0.00,0.0,meteohub,2013-03-03 09:52:00,
2013-03-03 02:57:00,45.7,20.3,29.87,SE,144,4.0,6.0,36,0.00,,,0.00,0.0,meteohub,2013-03-03 09:57:00,
2013-03-03 03:02:00,45.7,19.6,29.87,SE,144,2.0,6.0,35,0.00,,,0.00,0.0,meteohub,2013-03-03 10:02:00,
2013-03-03 03:07:00,45.7,19.6,29.87,SE,142,1.0,6.0,35,0.00,,,0.00,0.0,meteohub,2013-03-03 10:07:00,
2013-03-03 03:12:00,46.2,19.4,29.87,SSE,154,2.0,5.0,34,0.00,,,0.00,0.0,meteohub,2013-03-03 10:12:00,
2013-03-03 03:17:00,45.7,19.6,29.87,SSE,154,0.0,6.0,35,0.00,,,0.00,0.0,meteohub,2013-03-03 10:17:00,
2013-03-03 03:22:00,44.6,19.9,29.87,SSE,154,0.0,6.0,37,0.00,,,0.00,0.0,meteohub,2013-03-03 10:22:00,
2013-03-03 03:27:00,44.1,19.4,29.86,SSE,155,2.0,6.0,37,0.00,,,0.00,0.0,meteohub,2013-03-03 10:27:00,
2013-03-03 03:32:00,43.5,19.6,29.86,SSE,154,1.0,2.0,38,0.00,,,0.00,0.0,meteohub,2013-03-03 10:32:00,
2013-03-03 03:37:00,43.5,19.0,29.86,SSE,154,0.0,2.0,37,0.00,,,0.00,0.0,meteohub,2013-03-03 10:37:00,
2013-03-03 03:42:00,43.0,19.0,29.86,SSE,154,1.0,3.0,38,0.00,,,0.00,0.0,meteohub,2013-03-03 10:42:00,
2013-03-03 03:47:00,42.8,19.6,29.86,SSE,154,2.0,3.0,39,0.00,,,0.00,0.0,meteohub,2013-03-03 10:47:00,
2013-03-03 03:52:00,43.0,19.8,29.86,SSE,153,0.0,4.0,39,0.00,,,0.00,0.0,meteohub,2013-03-03 10:52:00,
2013-03-03 03:57:00,43.2,19.2,29.86,SSE,153,0.0,4.0,38,0.00,,,0.00,0.0,meteohub,2013-03-03 10:57:00,
2013-03-03 04:02:00,43.2,19.2,29.86,SSE,153,1.0,4.0,38,0.00,,,0.00,0.0,meteohub,2013-03-03 11:02:00,
2013-03-03 04:07:00,42.8,19.6,29.85,SSE,153,1.0,2.0,39,0.00,,,0.00,0.0,meteohub,2013-03-03 11:07:00,
2013-03-03 04:12:00,42.3,19.6,29.85,SSE,153,2.0,2.0,40,0.00,,,0.00,0.0,meteohub,2013-03-03 11:12:00,
2013-03-03 04:17:00,42.1,20.1,29.85,SSE,152,2.0,4.0,41,0.00,,,0.00,0.0,meteohub,2013-03-03 11:17:00,
2013-03-03 04:22:00,42.4,19.8,29.85,SSE,163,4.0,4.0,40,0.00,,,0.00,0.0,meteohub,2013-03-03 11:22:00,
2013-03-03 04:27:00,43.5,19.6,29.85,SSE,164,0.0,6.0,38,0.00,,,0.00,0.0,meteohub,2013-03-03 11:27:00,
2013-03-03 04:32:00,43.9,19.2,29.85,SSE,155,2.0,6.0,37,0.00,,,0.00,0.0,meteohub,2013-03-03 11:32:00,
2013-03-03 04:37:00,44.2,19.6,29.85,SSE,153,3.0,6.0,37,0.00,,,0.00,0.0,meteohub,2013-03-03 11:37:00,
2013-03-03 04:42:00,44.6,19.2,29.84,SSE,161,3.0,6.0,36,0.00,,,0.00,0.0,meteohub,2013-03-03 11:42:00,
2013-03-03 04:47:00,44.4,19.0,29.84,SSE,149,1.0,6.0,36,0.00,,,0.00,0.0,meteohub,2013-03-03 11:47:00,
2013-03-03 04:52:00,44.4,19.0,29.84,SSE,157,2.0,5.0,36,0.00,,,0.00,0.0,meteohub,2013-03-03 11:52:00,
2013-03-03 04:57:00,44.6,19.2,29.84,SE,144,3.0,5.0,36,0.00,,,0.00,0.0,meteohub,2013-03-03 11:57:00,
2013-03-03 05:02:00,44.8,19.4,29.84,SSE,168,5.0,5.0,36,0.00,,,0.00,0.0,meteohub,2013-03-03 12:02:00,
2013-03-03 05:07:00,45.1,19.0,29.83,South,179,5.0,7.0,35,0.00,,,0.00,0.0,meteohub,2013-03-03 12:07:00,
2013-03-03 05:12:00,45.1,19.0,29.84,SSE,161,3.0,7.0,35,0.00,,,0.00,0.0,meteohub,2013-03-03 12:12:00,
2013-03-03 05:17:00,45.0,18.9,29.84,SSE,162,0.0,7.0,35,0.00,,,0.00,0.0,meteohub,2013-03-03 12:17:00,
2013-03-03 05:22:00,44.4,19.0,29.83,SSE,150,2.0,5.0,36,0.00,,,0.00,0.0,meteohub,2013-03-03 12:22:00,
2013-03-03 05:27:00,44.1,18.9,29.83,SE,142,2.0,5.0,36,0.00,,,0.00,0.0,meteohub,2013-03-03 12:27:00,
2013-03-03 05:32:00,44.1,18.9,29.83,SSE,148,1.0,5.0,36,0.00,,,0.00,0.0,meteohub,2013-03-03 12:32:00,
2013-03-03 05:37:00,43.9,18.7,29.83,SE,144,4.0,5.0,36,0.00,,,0.00,0.0,meteohub,2013-03-03 12:37:00,
2013-03-03 05:42:00,44.1,18.9,29.83,SE,146,3.0,6.0,36,0.00,,,0.00,0.0,meteohub,2013-03-03 12:42:00,
2013-03-03 05:47:00,44.2,19.0,29.83,SE,146,4.0,6.0,36,0.00,,,0.00,0.0,meteohub,2013-03-03 12:47:00,
2013-03-03 05:52:00,43.9,18.7,29.83,SE,146,3.0,6.0,36,0.00,,,0.00,0.0,meteohub,2013-03-03 12:52:00,
2013-03-03 05:57:00,43.3,18.9,29.83,SE,146,2.0,6.0,37,0.00,,,0.00,0.0,meteohub,2013-03-03 12:57:00,
2013-03-03 06:02:00,42.6,18.9,29.82,SE,146,2.0,5.0,38,0.00,,,0.00,0.0,meteohub,2013-03-03 13:02:00,
2013-03-03 06:07:00,42.3,19.0,29.83,SE,146,2.0,4.0,39,0.00,,,0.00,0.0,meteohub,2013-03-03 13:07:00,
2013-03-03 06:12:00,42.3,19.0,29.82,SE,146,3.0,4.0,39,0.00,,,0.00,0.0,meteohub,2013-03-03 13:12:00,
2013-03-03 06:17:00,42.1,19.6,29.83,SE,146,2.0,5.0,40,0.00,,,0.00,0.0,meteohub,2013-03-03 13:17:00,
2013-03-03 06:22:00,41.9,19.4,29.82,SSE,148,2.0,5.0,40,0.00,,,0.00,0.0,meteohub,2013-03-03 13:22:00,
2013-03-03 06:27:00,41.9,19.4,29.82,SE,146,1.0,5.0,40,0.00,,,0.00,0.0,meteohub,2013-03-03 13:27:00,
2013-03-03 06:32:00,41.9,19.4,29.82,SE,144,3.0,5.0,40,0.00,,,0.00,0.0,meteohub,2013-03-03 13:32:00,
2013-03-03 06:37:00,41.9,19.4,29.82,SE,146,2.0,5.0,40,0.00,,,0.00,0.0,meteohub,2013-03-03 13:37:00,
2013-03-03 06:42:00,41.9,21.0,29.82,SE,146,0.0,5.0,43,0.00,,,0.00,7.0,meteohub,2013-03-03 13:42:00,
2013-03-03 06:47:00,41.7,19.2,29.82,SE,145,0.0,4.0,40,0.00,,,0.00,11.0,meteohub,2013-03-03 13:47:00,
2013-03-03 06:52:00,41.2,19.2,29.82,SE,146,0.0,4.0,41,0.00,,,0.00,12.0,meteohub,2013-03-03 13:52:00,
2013-03-03 06:57:00,40.1,19.4,29.82,SE,146,0.0,2.0,43,0.00,,,0.00,18.0,meteohub,2013-03-03 13:57:00,
2013-03-03 07:02:00,40.3,19.6,29.82,SE,146,0.0,1.0,43,0.00,,,0.00,49.0,meteohub,2013-03-03 14:02:00,
2013-03-03 07:07:00,40.5,19.8,29.82,SE,146,1.0,3.0,43,0.00,,,0.00,69.0,meteohub,2013-03-03 14:07:00,
2013-03-03 07:12:00,40.8,19.6,29.81,SSE,147,2.0,3.0,42,0.00,,,0.00,100.0,meteohub,2013-03-03 14:12:00,
2013-03-03 07:17:00,41.4,19.9,29.81,SSE,147,1.0,3.0,42,0.00,,,0.00,113.0,meteohub,2013-03-03 14:17:00,
2013-03-03 07:22:00,42.1,20.1,29.81,SSE,147,1.0,3.0,41,0.00,,,0.00,141.0,meteohub,2013-03-03 14:22:00,
2013-03-03 07:27:00,42.8,19.6,29.81,SE,146,0.0,3.0,39,0.00,,,0.00,172.0,meteohub,2013-03-03 14:27:00,
2013-03-03 07:32:00,43.5,19.6,29.81,SSE,147,0.0,3.0,38,0.00,,,0.00,193.0,meteohub,2013-03-03 14:32:00,
2013-03-03 07:37:00,44.2,19.0,29.81,SSE,165,2.0,3.0,36,0.00,,,0.00,207.0,meteohub,2013-03-03 14:37:00,
2013-03-03 07:42:00,45.0,19.6,29.81,South,181,3.0,5.0,36,0.00,,,0.00,220.0,meteohub,2013-03-03 14:42:00,
2013-03-03 07:47:00,45.1,19.0,29.81,South,188,5.0,7.0,35,0.00,,,0.00,163.0,meteohub,2013-03-03 14:47:00,
2013-03-03 07:52:00,45.5,18.7,29.81,SSW,194,3.0,7.0,34,0.00,,,0.00,225.0,meteohub,2013-03-03 14:52:00,
2013-03-03 07:57:00,46.0,18.5,29.81,SSW,193,2.0,7.0,33,0.00,,,0.00,283.0,meteohub,2013-03-03 14:57:00,
2013-03-03 08:02:00,46.8,18.5,29.81,South,190,3.0,6.0,32,0.00,,,0.00,308.0,meteohub,2013-03-03 15:02:00,
2013-03-03 08:07:00,47.8,17.1,29.81,SSE,157,7.0,7.0,29,0.00,,,0.00,158.0,meteohub,2013-03-03 15:07:00,
2013-03-03 08:12:00,48.4,16.7,29.81,South,190,4.0,10.0,28,0.00,,,0.00,390.0,meteohub,2013-03-03 15:12:00,
2013-03-03 08:17:00,48.9,16.3,29.81,SSE,160,4.0,13.0,27,0.00,,,0.00,434.0,meteohub,2013-03-03 15:17:00,
2013-03-03 08:22:00,49.3,16.7,29.81,SSW,195,10.0,13.0,27,0.00,,,0.00,469.0,meteohub,2013-03-03 15:22:00,
2013-03-03 08:27:00,49.3,16.7,29.81,SSE,167,8.0,13.0,27,0.00,,,0.00,190.0,meteohub,2013-03-03 15:27:00,
2013-03-03 08:32:00,49.8,16.3,29.81,South,190,6.0,12.0,26,0.00,,,0.00,508.0,meteohub,2013-03-03 15:32:00,
2013-03-03 08:37:00,49.8,16.3,29.81,SSE,163,7.0,13.0,26,0.00,,,0.00,218.0,meteohub,2013-03-03 15:37:00,
2013-03-03 08:42:00,49.6,16.2,29.81,South,178,6.0,13.0,26,0.00,,,0.00,192.0,meteohub,2013-03-03 15:42:00,
2013-03-03 08:47:00,49.5,16.0,29.81,South,188,7.0,13.0,26,0.00,,,0.00,197.0,meteohub,2013-03-03 15:47:00,
2013-03-03 08:52:00,49.3,16.7,29.81,South,188,4.0,13.0,27,0.00,,,0.00,439.0,meteohub,2013-03-03 15:52:00,
2013-03-03 08:57:00,49.5,16.0,29.81,SE,130,3.0,12.0,26,0.00,,,0.00,134.0,meteohub,2013-03-03 15:57:00,
2013-03-03 09:02:00,49.1,15.6,29.80,SSW,192,6.0,12.0,26,0.00,,,0.00,118.0,meteohub,2013-03-03 16:02:00,
2013-03-03 09:07:00,48.9,16.3,29.80,South,173,6.0,10.0,27,0.00,,,0.00,218.0,meteohub,2013-03-03 16:07:00,
2013-03-03 09:12:00,49.8,16.3,29.80,SSE,148,5.0,10.0,26,0.00,,,0.00,657.0,meteohub,2013-03-03 16:12:00,
2013-03-03 09:17:00,50.5,16.9,29.80,South,181,8.0,11.0,26,0.00,,,0.00,626.0,meteohub,2013-03-03 16:17:00,
2013-03-03 09:22:00,50.9,17.2,29.79,South,171,5.0,11.0,26,0.00,,,0.00,608.0,meteohub,2013-03-03 16:22:00,
2013-03-03 09:27:00,50.7,17.1,29.79,SSE,164,2.0,11.0,26,0.00,,,0.00,214.0,meteohub,2013-03-03 16:27:00,
2013-03-03 09:32:00,50.7,16.2,29.78,South,182,6.0,11.0,25,0.00,,,0.00,355.0,meteohub,2013-03-03 16:32:00,
2013-03-03 09:37:00,51.1,16.5,29.78,South,186,6.0,12.0,25,0.00,,,0.00,585.0,meteohub,2013-03-03 16:37:00,
2013-03-03 09:42:00,51.6,16.9,29.78,SSE,167,5.0,16.0,25,0.00,,,0.00,694.0,meteohub,2013-03-03 16:42:00,
2013-03-03 09:47:00,52.3,16.5,29.78,SSW,194,7.0,16.0,24,0.00,,,0.00,770.0,meteohub,2013-03-03 16:47:00,
2013-03-03 09:52:00,52.9,17.1,29.78,South,184,4.0,16.0,24,0.00,,,0.00,816.0,meteohub,2013-03-03 16:52:00,
2013-03-03 09:57:00,52.7,16.9,29.78,South,177,8.0,11.0,24,0.00,,,0.00,668.0,meteohub,2013-03-03 16:57:00,
2013-03-03 10:02:00,52.5,16.7,29.78,SSE,159,5.0,11.0,24,0.00,,,0.00,742.0,meteohub,2013-03-03 17:02:00,
2013-03-03 10:07:00,52.9,17.1,29.78,SSE,161,2.0,11.0,24,0.00,,,0.00,726.0,meteohub,2013-03-03 17:07:00,
2013-03-03 10:12:00,53.6,16.7,29.77,SSE,151,8.0,11.0,23,0.00,,,0.00,698.0,meteohub,2013-03-03 17:12:00,
2013-03-03 10:17:00,53.4,16.5,29.77,SE,146,3.0,11.0,23,0.00,,,0.00,661.0,meteohub,2013-03-03 17:17:00,
2013-03-03 10:22:00,54.0,17.1,29.77,South,185,5.0,11.0,23,0.00,,,0.00,717.0,meteohub,2013-03-03 17:22:00,
2013-03-03 10:27:00,54.1,16.2,29.77,SE,146,3.0,11.0,22,0.00,,,0.00,722.0,meteohub,2013-03-03 17:27:00,
2013-03-03 10:32:00,54.5,16.3,29.76,SSE,148,6.0,11.0,22,0.00,,,0.00,615.0,meteohub,2013-03-03 17:32:00,
2013-03-03 10:37:00,54.7,16.5,29.76,South,180,4.0,9.0,22,0.00,,,0.00,330.0,meteohub,2013-03-03 17:37:00,
2013-03-03 10:42:00,54.3,16.3,29.76,SSW,200,7.0,9.0,22,0.00,,,0.00,225.0,meteohub,2013-03-03 17:42:00,
2013-03-03 10:47:00,54.1,16.2,29.75,South,184,5.0,9.0,22,0.00,,,0.00,248.0,meteohub,2013-03-03 17:47:00,
2013-03-03 10:52:00,54.9,16.7,29.75,SSW,195,4.0,7.0,22,0.00,,,0.00,721.0,meteohub,2013-03-03 17:52:00,
2013-03-03 10:57:00,56.7,16.0,29.75,South,173,4.0,7.0,20,0.00,,,0.00,782.0,meteohub,2013-03-03 17:57:00,
2013-03-03 11:02:00,56.7,16.0,29.74,South,176,6.0,7.0,20,0.00,,,0.00,779.0,meteohub,2013-03-03 18:02:00,
2013-03-03 11:07:00,57.0,16.3,29.73,South,177,6.0,9.0,20,0.00,,,0.00,788.0,meteohub,2013-03-03 18:07:00,
2013-03-03 11:12:00,57.9,15.8,29.73,South,172,6.0,10.0,19,0.00,,,0.00,805.0,meteohub,2013-03-03 18:12:00,
2013-03-03 11:17:00,57.6,15.6,29.73,SSW,196,3.0,10.0,19,0.00,,,0.00,752.0,meteohub,2013-03-03 18:17:00,
2013-03-03 11:22:00,57.7,15.8,29.73,SSW,193,7.0,11.0,19,0.00,,,0.00,724.0,meteohub,2013-03-03 18:22:00,
2013-03-03 11:27:00,57.9,14.7,29.73,South,174,4.0,11.0,18,0.00,,,0.00,765.0,meteohub,2013-03-03 18:27:00,
2013-03-03 11:32:00,58.5,15.1,29.73,South,173,5.0,11.0,18,0.00,,,0.00,635.0,meteohub,2013-03-03 18:32:00,
2013-03-03 11:37:00,58.5,15.1,29.72,SSE,165,0.0,9.0,18,0.00,,,0.00,710.0,meteohub,2013-03-03 18:37:00,
2013-03-03 11:42:00,58.6,12.6,29.72,SSE,167,1.0,9.0,16,0.00,,,0.00,476.0,meteohub,2013-03-03 18:42:00,
2013-03-03 11:47:00,58.8,12.7,29.72,SSW,210,4.0,10.0,16,0.00,,,0.00,434.0,meteohub,2013-03-03 18:47:00,
2013-03-03 11:52:00,58.6,12.6,29.71,SW,231,7.0,10.0,16,0.00,,,0.00,350.0,meteohub,2013-03-03 18:52:00,
2013-03-03 11:57:00,58.5,12.4,29.71,SW,224,3.0,10.0,16,0.00,,,0.00,232.0,meteohub,2013-03-03 18:57:00,
2013-03-03 12:02:00,58.6,12.6,29.71,SW,215,4.0,10.0,16,0.00,,,0.00,707.0,meteohub,2013-03-03 19:02:00,
2013-03-03 12:07:00,59.0,12.9,29.71,South,186,1.0,10.0,16,0.00,,,0.00,840.0,meteohub,2013-03-03 19:07:00,
2013-03-03 12:12:00,59.4,11.7,29.70,South,178,0.0,10.0,15,0.00,,,0.00,830.0,meteohub,2013-03-03 19:12:00,
2013-03-03 12:17:00,59.7,12.0,29.70,South,175,2.0,8.0,15,0.00,,,0.00,698.0,meteohub,2013-03-03 19:17:00,
2013-03-03 12:22:00,59.5,11.8,29.69,South,170,5.0,9.0,15,0.00,,,0.00,932.0,meteohub,2013-03-03 19:22:00,
2013-03-03 12:27:00,60.4,10.9,29.69,SE,139,4.0,9.0,14,0.00,,,0.00,942.0,meteohub,2013-03-03 19:27:00,
2013-03-03 12:32:00,61.2,9.9,29.68,SSW,192,1.0,7.0,13,0.00,,,0.00,942.0,meteohub,2013-03-03 19:32:00,
2013-03-03 12:37:00,62.2,12.4,29.68,SSW,198,4.0,8.0,14,0.00,,,0.00,840.0,meteohub,2013-03-03 19:37:00,
2013-03-03 12:42:00,61.7,10.4,29.67,South,188,4.0,11.0,13,0.00,,,0.00,983.0,meteohub,2013-03-03 19:42:00,
2013-03-03 12:47:00,61.7,10.4,29.67,SSW,207,7.0,11.0,13,0.00,,,0.00,548.0,meteohub,2013-03-03 19:47:00,
2013-03-03 12:52:00,61.5,10.2,29.66,SW,218,5.0,10.0,13,0.00,,,0.00,359.0,meteohub,2013-03-03 19:52:00,
2013-03-03 12:57:00,61.0,9.7,29.66,South,186,2.0,9.0,13,0.00,,,0.00,598.0,meteohub,2013-03-03 19:57:00,
2013-03-03 13:02:00,61.3,10.0,29.66,SSW,196,3.0,9.0,13,0.00,,,0.00,489.0,meteohub,2013-03-03 20:02:00,
2013-03-03 13:07:00,61.9,10.4,29.66,SW,234,7.0,7.0,13,0.00,,,0.00,350.0,meteohub,2013-03-03 20:07:00,
2013-03-03 13:12:00,61.9,8.6,29.65,WSW,242,2.0,8.0,12,0.00,,,0.00,274.0,meteohub,2013-03-03 20:12:00,
2013-03-03 13:17:00,61.3,10.0,29.65,SW,233,2.0,9.0,13,0.00,,,0.00,195.0,meteohub,2013-03-03 20:17:00,
2013-03-03 13:27:00,61.9,8.6,29.64,South,190,3.0,7.0,12,0.00,,,0.00,248.0,meteohub,2013-03-03 20:27:00,
2013-03-03 13:32:00,61.5,10.2,29.63,SW,223,2.0,8.0,13,0.00,,,0.00,186.0,meteohub,2013-03-03 20:32:00,
2013-03-03 13:37:00,61.5,8.4,29.63,SSE,157,2.0,8.0,12,0.00,,,0.00,239.0,meteohub,2013-03-03 20:37:00,
2013-03-03 13:42:00,62.1,8.8,29.64,South,173,1.0,8.0,12,0.00,,,0.00,346.0,meteohub,2013-03-03 20:42:00,
2013-03-03 13:47:00,62.4,9.1,29.64,South,187,3.0,6.0,12,0.00,,,0.00,320.0,meteohub,2013-03-03 20:47:00,
2013-03-03 13:52:00,62.2,9.0,29.62,South,178,6.0,6.0,12,0.00,,,0.00,192.0,meteohub,2013-03-03 20:52:00,
2013-03-03 13:57:00,62.8,9.3,29.62,South,172,5.0,6.0,12,0.00,,,0.00,290.0,meteohub,2013-03-03 20:57:00,
2013-03-03 14:02:00,63.3,7.9,29.62,South,173,2.0,6.0,11,0.00,,,0.00,234.0,meteohub,2013-03-03 21:02:00,
2013-03-03 14:07:00,63.3,7.9,29.62,SW,228,2.0,6.0,11,0.00,,,0.00,223.0,meteohub,2013-03-03 21:07:00,
2013-03-03 14:12:00,64.0,1.6,29.61,WSW,253,3.0,6.0,8,0.00,,,0.00,271.0,meteohub,2013-03-03 21:12:00,
2013-03-03 14:17:00,64.8,-0.8,29.61,West,271,7.0,7.0,7,0.00,,,0.00,181.0,meteohub,2013-03-03 21:17:00,
2013-03-03 14:22:00,64.9,-4.0,29.61,West,263,9.0,9.0,6,0.00,,,0.00,156.0,meteohub,2013-03-03 21:22:00,
2013-03-03 14:27:00,65.3,-3.6,29.60,SW,222,5.0,11.0,6,0.00,,,0.00,165.0,meteohub,2013-03-03 21:27:00,
2013-03-03 14:32:00,65.5,-7.2,29.60,West,275,5.0,13.0,5,0.00,,,0.00,148.0,meteohub,2013-03-03 21:32:00,
2013-03-03 14:42:00,65.5,-7.2,29.59,West,259,8.0,13.0,5,0.00,,,0.00,195.0,meteohub,2013-03-03 21:42:00,
2013-03-03 14:47:00,65.1,-3.8,29.60,West,270,7.0,16.0,6,0.00,,,0.00,185.0,meteohub,2013-03-03 21:47:00,
2013-03-03 14:52:00,65.1,-3.8,29.60,WNW,294,13.0,16.0,6,0.00,,,0.00,211.0,meteohub,2013-03-03 21:52:00,
2013-03-03 14:57:00,65.1,-3.8,29.60,SW,234,5.0,16.0,6,0.00,,,0.00,148.0,meteohub,2013-03-03 21:57:00,
2013-03-03 15:02:00,64.9,-7.8,29.59,NW,304,6.0,16.0,5,0.00,,,0.00,121.0,meteohub,2013-03-03 22:02:00,
2013-03-03 15:07:00,64.8,-7.8,29.60,West,261,7.0,15.0,5,0.00,,,0.00,130.0,meteohub,2013-03-03 22:07:00,
2013-03-03 15:12:00,64.8,-7.8,29.60,WNW,288,6.0,12.0,5,0.00,,,0.00,111.0,meteohub,2013-03-03 22:12:00,
2013-03-03 15:17:00,64.6,-8.0,29.60,NNW,338,9.0,12.0,5,0.00,,,0.00,128.0,meteohub,2013-03-03 22:17:00,
2013-03-03 15:22:00,64.6,-8.0,29.60,WSW,257,10.0,12.0,5,0.00,,,0.00,148.0,meteohub,2013-03-03 22:22:00,
2013-03-03 15:27:00,64.6,-8.0,29.60,WSW,246,3.0,15.0,5,0.00,,,0.00,171.0,meteohub,2013-03-03 22:27:00,
2013-03-03 15:32:00,64.9,-7.8,29.60,NW,306,6.0,15.0,5,0.00,,,0.00,200.0,meteohub,2013-03-03 22:32:00,
2013-03-03 15:37:00,65.1,-7.6,29.59,WNW,300,5.0,14.0,5,0.00,,,0.00,446.0,meteohub,2013-03-03 22:37:00,
2013-03-03 15:42:00,65.8,-7.1,29.59,West,281,6.0,14.0,5,0.00,,,0.00,552.0,meteohub,2013-03-03 22:42:00,
2013-03-03 15:47:00,66.7,-6.3,29.59,NNW,333,6.0,13.0,5,0.00,,,0.00,338.0,meteohub,2013-03-03 22:47:00,
2013-03-03 15:52:00,66.4,-6.7,29.59,NW,319,12.0,12.0,5,0.00,,,0.00,239.0,meteohub,2013-03-03 22:52:00,
2013-03-03 15:57:00,66.4,-6.7,29.59,WNW,294,7.0,14.0,5,0.00,,,0.00,281.0,meteohub,2013-03-03 22:57:00,
2013-03-03 16:02:00,66.4,-6.7,29.59,NW,311,5.0,14.0,5,0.00,,,0.00,257.0,meteohub,2013-03-03 23:02:00,
2013-03-03 16:07:00,66.0,-6.9,29.58,WNW,301,7.0,14.0,5,0.00,,,0.00,406.0,meteohub,2013-03-03 23:07:00,
2013-03-03 16:12:00,66.0,-3.1,29.58,WSW,258,5.0,13.0,6,0.00,,,0.00,193.0,meteohub,2013-03-03 23:12:00,
2013-03-03 16:17:00,66.0,-3.1,29.58,NW,304,9.0,13.0,6,0.00,,,0.00,111.0,meteohub,2013-03-03 23:17:00,
2013-03-03 16:22:00,65.8,-3.3,29.58,NNW,328,9.0,12.0,6,0.00,,,0.00,102.0,meteohub,2013-03-03 23:22:00,
2013-03-03 16:27:00,65.5,-3.5,29.58,NW,311,11.0,16.0,6,0.00,,,0.00,95.0,meteohub,2013-03-03 23:27:00,
2013-03-03 16:32:00,64.9,-4.0,29.58,NW,315,9.0,19.0,6,0.00,,,0.00,81.0,meteohub,2013-03-03 23:32:00,
2013-03-03 16:37:00,64.8,-0.8,29.58,NW,314,8.0,19.0,7,0.00,,,0.00,60.0,meteohub,2013-03-03 23:37:00,
2013-03-03 16:42:00,64.6,-0.9,29.58,WNW,300,4.0,15.0,7,0.00,,,0.00,49.0,meteohub,2013-03-03 23:42:00,
2013-03-03 16:47:00,64.2,1.6,29.59,NW,317,10.0,16.0,8,0.00,,,0.00,58.0,meteohub,2013-03-03 23:47:00,
2013-03-03 16:52:00,64.0,1.6,29.58,NW,323,8.0,16.0,8,0.00,,,0.00,49.0,meteohub,2013-03-03 23:52:00,
2013-03-03 16:57:00,64.0,-1.3,29.58,NW,309,8.0,17.0,7,0.00,,,0.00,35.0,meteohub,2013-03-03 23:57:00,
2013-03-03 17:02:00,63.9,-1.5,29.58,NNW,333,9.0,18.0,7,0.00,,,0.00,23.0,meteohub,2013-03-04 00:02:00,
2013-03-03 17:07:00,63.7,-1.7,29.58,WNW,296,4.0,18.0,7,0.00,,,0.00,26.0,meteohub,2013-03-04 00:07:00,
2013-03-03 17:12:00,63.5,-1.7,29.59,WNW,300,9.0,18.0,7,0.00,,,0.00,16.0,meteohub,2013-03-04 00:12:00,
2013-03-03 17:17:00,63.3,1.0,29.59,NW,307,13.0,19.0,8,0.00,,,0.00,21.0,meteohub,2013-03-04 00:17:00,
2013-03-03 17:22:00,63.1,0.9,29.59,WNW,292,11.0,19.0,8,0.00,,,0.00,14.0,meteohub,2013-03-04 00:22:00,
2013-03-03 17:27:00,63.0,0.7,29.59,WNW,301,6.0,19.0,8,0.00,,,0.00,12.0,meteohub,2013-03-04 00:27:00,
2013-03-03 17:32:00,62.8,0.5,29.59,WNW,296,10.0,21.0,8,0.00,,,0.00,11.0,meteohub,2013-03-04 00:32:00,
2013-03-03 17:37:00,62.4,2.8,29.60,WNW,285,5.0,21.0,9,0.00,,,0.00,16.0,meteohub,2013-03-04 00:37:00,
2013-03-03 17:42:00,62.2,2.7,29.60,NW,322,9.0,21.0,9,0.00,,,0.00,12.0,meteohub,2013-03-04 00:42:00,
2013-03-03 17:47:00,62.1,2.5,29.60,NW,306,12.0,16.0,9,0.00,,,0.00,7.0,meteohub,2013-03-04 00:47:00,
2013-03-03 17:52:00,61.9,4.6,29.60,NW,311,8.0,17.0,10,0.00,,,0.00,5.0,meteohub,2013-03-04 00:52:00,
2013-03-03 17:57:00,61.9,4.6,29.60,NW,304,11.0,17.0,10,0.00,,,0.00,0.0,meteohub,2013-03-04 00:57:00,
2013-03-03 18:07:00,61.5,4.5,29.60,West,274,5.0,14.0,10,0.00,,,0.00,0.0,meteohub,2013-03-04 01:07:00,
2013-03-03 18:12:00,61.3,4.3,29.60,West,281,8.0,14.0,10,0.00,,,0.00,0.0,meteohub,2013-03-04 01:12:00,
2013-03-03 18:17:00,61.2,6.3,29.61,WNW,288,7.0,13.0,11,0.00,,,0.00,0.0,meteohub,2013-03-04 01:17:00,
2013-03-03 18:22:00,61.0,9.7,29.62,NW,304,8.0,13.0,13,0.00,,,0.00,0.0,meteohub,2013-03-04 01:22:00,
2013-03-03 18:27:00,60.6,15.6,29.61,West,268,7.0,18.0,17,0.00,,,0.00,0.0,meteohub,2013-03-04 01:27:00,
2013-03-03 18:32:00,60.3,16.5,29.61,WNW,291,6.0,18.0,18,0.00,,,0.00,0.0,meteohub,2013-03-04 01:32:00,
2013-03-03 18:42:00,59.7,16.2,29.61,NW,321,8.0,17.0,18,0.00,,,0.00,0.0,meteohub,2013-03-04 01:42:00,
2013-03-03 18:47:00,59.7,16.2,29.61,NW,307,5.0,14.0,18,0.00,,,0.00,0.0,meteohub,2013-03-04 01:47:00,
2013-03-03 18:52:00,59.5,14.7,29.62,WNW,298,7.0,14.0,17,0.00,,,0.00,0.0,meteohub,2013-03-04 01:52:00,
2013-03-03 18:57:00,59.5,16.0,29.62,WNW,292,11.0,13.0,18,0.00,,,0.00,0.0,meteohub,2013-03-04 01:57:00,
2013-03-03 19:02:00,59.4,18.3,29.61,NW,313,6.0,15.0,20,0.00,,,0.00,0.0,meteohub,2013-03-04 02:02:00,
2013-03-03 19:07:00,59.4,18.3,29.61,NW,320,7.0,15.0,20,0.00,,,0.00,0.0,meteohub,2013-03-04 02:07:00,
2013-03-03 19:12:00,59.2,18.1,29.61,NW,310,4.0,15.0,20,0.00,,,0.00,0.0,meteohub,2013-03-04 02:12:00,
2013-03-03 19:17:00,58.8,19.0,29.61,NW,316,3.0,11.0,21,0.00,,,0.00,0.0,meteohub,2013-03-04 02:17:00,
2013-03-03 19:22:00,58.6,18.9,29.62,WNW,294,2.0,9.0,21,0.00,,,0.00,0.0,meteohub,2013-03-04 02:22:00,
2013-03-03 19:27:00,58.6,19.9,29.61,WNW,283,4.0,8.0,22,0.00,,,0.00,0.0,meteohub,2013-03-04 02:27:00,
2013-03-03 19:32:00,58.5,19.8,29.61,NW,316,1.0,8.0,22,0.00,,,0.00,0.0,meteohub,2013-03-04 02:32:00,
2013-03-03 19:37:00,58.5,20.8,29.61,NW,322,1.0,6.0,23,0.00,,,0.00,0.0,meteohub,2013-03-04 02:37:00,
2013-03-03 19:42:00,58.3,20.7,29.61,NW,318,2.0,6.0,23,0.00,,,0.00,0.0,meteohub,2013-03-04 02:42:00,
2013-03-03 19:52:00,58.1,21.6,29.60,NW,317,0.0,4.0,24,0.00,,,0.00,0.0,meteohub,2013-03-04 02:52:00,
2013-03-03 20:02:00,57.7,21.2,29.60,North,9,2.0,3.0,24,0.00,,,0.00,0.0,meteohub,2013-03-04 03:02:00,
2013-03-03 20:07:00,57.4,20.8,29.60,NNE,14,0.0,3.0,24,0.00,,,0.00,0.0,meteohub,2013-03-04 03:07:00,
2013-03-03 20:12:00,57.0,20.5,29.60,NNE,14,0.0,3.0,24,0.00,,,0.00,0.0,meteohub,2013-03-04 03:12:00,
2013-03-03 20:17:00,56.8,20.5,29.60,NNE,14,0.0,3.0,24,0.00,,,0.00,0.0,meteohub,2013-03-04 03:17:00,
2013-03-03 20:22:00,56.5,21.0,29.60,NNE,14,0.0,2.0,25,0.00,,,0.00,0.0,meteohub,2013-03-04 03:22:00,
2013-03-03 20:32:00,55.9,21.6,29.60,NE,37,0.0,2.0,26,0.00,,,0.00,0.0,meteohub,2013-03-04 03:32:00,
2013-03-03 20:42:00,55.9,21.6,29.60,ESE,123,1.0,5.0,26,0.00,,,0.00,0.0,meteohub,2013-03-04 03:42:00,
2013-03-03 20:52:00,55.8,21.4,29.60,SSE,157,3.0,5.0,26,0.00,,,0.00,0.0,meteohub,2013-03-04 03:52:00,
2013-03-03 20:57:00,55.9,21.6,29.60,SSE,167,3.0,5.0,26,0.00,,,0.00,0.0,meteohub,2013-03-04 03:57:00,
2013-03-03 21:02:00,56.5,21.0,29.60,SW,216,3.0,9.0,25,0.00,,,0.00,0.0,meteohub,2013-03-04 04:02:00,
2013-03-03 21:07:00,56.7,21.2,29.61,SW,234,6.0,9.0,25,0.00,,,0.00,0.0,meteohub,2013-03-04 04:07:00,
2013-03-03 21:12:00,56.8,20.5,29.60,WSW,258,6.0,9.0,24,0.00,,,0.00,0.0,meteohub,2013-03-04 04:12:00,
2013-03-03 21:17:00,56.8,19.4,29.60,SW,219,3.0,10.0,23,0.00,,,0.00,0.0,meteohub,2013-03-04 04:17:00,
2013-03-03 21:22:00,56.8,19.4,29.60,SW,227,2.0,10.0,23,0.00,,,0.00,0.0,meteohub,2013-03-04 04:22:00,
2013-03-03 21:27:00,56.7,20.3,29.60,SW,225,5.0,10.0,24,0.00,,,0.00,0.0,meteohub,2013-03-04 04:27:00,
2013-03-03 21:32:00,56.7,20.3,29.60,SW,226,5.0,8.0,24,0.00,,,0.00,0.0,meteohub,2013-03-04 04:32:00,
2013-03-03 21:37:00,56.7,20.3,29.60,SW,225,5.0,8.0,24,0.00,,,0.00,0.0,meteohub,2013-03-04 04:37:00,
2013-03-03 21:42:00,56.5,20.1,29.60,WSW,240,4.0,15.0,24,0.00,,,0.00,0.0,meteohub,2013-03-04 04:42:00,
2013-03-03 21:47:00,56.1,19.8,29.60,SW,226,5.0,15.0,24,0.00,,,0.00,0.0,meteohub,2013-03-04 04:47:00,
2013-03-03 21:52:00,55.9,20.7,29.60,SW,222,4.0,8.0,25,0.00,,,0.00,0.0,meteohub,2013-03-04 04:52:00,
2013-03-03 21:57:00,55.9,20.7,29.60,SSW,192,3.0,7.0,25,0.00,,,0.00,0.0,meteohub,2013-03-04 04:57:00,
2013-03-03 22:02:00,55.9,20.7,29.60,SSW,213,2.0,6.0,25,0.00,,,0.00,0.0,meteohub,2013-03-04 05:02:00,
2013-03-03 22:07:00,55.8,20.5,29.60,SSW,209,4.0,6.0,25,0.00,,,0.00,0.0,meteohub,2013-03-04 05:07:00,
2013-03-03 22:12:00,55.8,20.5,29.60,SW,218,3.0,8.0,25,0.00,,,0.00,0.0,meteohub,2013-03-04 05:12:00,
2013-03-03 22:17:00,55.8,21.4,29.61,SW,217,4.0,10.0,26,0.00,,,0.00,0.0,meteohub,2013-03-04 05:17:00,
2013-03-03 22:22:00,55.6,21.2,29.60,WSW,238,9.0,10.0,26,0.00,,,0.00,0.0,meteohub,2013-03-04 05:22:00,
2013-03-03 22:27:00,55.6,21.2,29.61,SSW,210,7.0,10.0,26,0.00,,,0.00,0.0,meteohub,2013-03-04 05:27:00,
2013-03-03 22:32:00,55.6,21.2,29.60,SW,221,6.0,10.0,26,0.00,,,0.00,0.0,meteohub,2013-03-04 05:32:00,
2013-03-03 22:37:00,55.6,20.3,29.60,SSW,212,4.0,12.0,25,0.00,,,0.00,0.0,meteohub,2013-03-04 05:37:00,
2013-03-03 22:42:00,55.6,20.3,29.60,SW,219,5.0,12.0,25,0.00,,,0.00,0.0,meteohub,2013-03-04 05:42:00,
2013-03-03 22:47:00,55.4,21.0,29.60,SW,230,6.0,12.0,26,0.00,,,0.00,0.0,meteohub,2013-03-04 05:47:00,
2013-03-03 22:52:00,55.6,20.3,29.60,SW,215,5.0,12.0,25,0.00,,,0.00,0.0,meteohub,2013-03-04 05:52:00,
2013-03-03 22:57:00,55.6,21.2,29.60,SSW,193,3.0,13.0,26,0.00,,,0.00,0.0,meteohub,2013-03-04 05:57:00,
2013-03-03 23:02:00,55.6,21.2,29.60,SW,225,5.0,13.0,26,0.00,,,0.00,0.0,meteohub,2013-03-04 06:02:00,
2013-03-03 23:07:00,55.4,21.9,29.60,SSW,207,4.0,10.0,27,0.00,,,0.00,0.0,meteohub,2013-03-04 06:07:00,
2013-03-03 23:12:00,55.2,21.7,29.60,SW,224,13.0,13.0,27,0.00,,,0.00,0.0,meteohub,2013-03-04 06:12:00,
2013-03-03 23:17:00,55.4,21.0,29.60,SW,217,8.0,15.0,26,0.00,,,0.00,0.0,meteohub,2013-03-04 06:17:00,
2013-03-03 23:22:00,55.4,21.9,29.60,SW,215,6.0,15.0,27,0.00,,,0.00,0.0,meteohub,2013-03-04 06:22:00,
2013-03-03 23:27:00,55.4,21.9,29.60,SW,230,5.0,15.0,27,0.00,,,0.00,0.0,meteohub,2013-03-04 06:27:00,
2013-03-03 23:32:00,55.2,21.7,29.60,SSW,200,4.0,14.0,27,0.00,,,0.00,0.0,meteohub,2013-03-04 06:32:00,
2013-03-03 23:37:00,55.2,21.7,29.59,SSW,207,3.0,12.0,27,0.00,,,0.00,0.0,meteohub,2013-03-04 06:37:00,
2013-03-03 23:42:00,55.2,21.7,29.59,SSW,212,7.0,12.0,27,0.00,,,0.00,0.0,meteohub,2013-03-04 06:42:00,
2013-03-03 23:47:00,55.0,22.5,29.59,SW,216,7.0,12.0,28,0.00,,,0.00,0.0,meteohub,2013-03-04 06:47:00,
2013-03-03 23:52:00,54.9,22.3,29.59,SW,221,7.0,12.0,28,0.00,,,0.00,0.0,meteohub,2013-03-04 06:52:00,
2013-03-03 23:57:00,54.7,22.3,29.59,South,186,4.0,10.0,28,0.00,,,0.00,0.0,meteohub,2013-03-04 06:57:00,